Weather in Tlyanub

Russia / Republic of Dagestan     42°26′08″N   46°27′25″E
temp.,
°C
wind,
m/s
gust,
m/s
humid.,
%
clouds,
%
prec.,
mm/h
press.,
hPa
HPBL,
m
10 august, wed
wed1000:00+9ssw11896 0.0 101810
03:00+9ssw22880 0.0 101812
06:00+10ssw22850 0.0 101832
09:00+16e22640 0.0 1015851
12:00+19ene335910 0.0 10131160
15:00+19e326246 0.1 10121092
18:00+18e22740 0.1 101259
21:00+13ssw33810 0.1 101430
11 august, thu
thu1100:00+11ssw33820 0.0 101438
03:00+10ssw33800 0.0 101438
06:00+12ssw33780 0.0 101458
09:00+20s22510 0.0 1011651
12:00+24e23442 0.0 10091615
15:00+23ene225131 0.0 10091075
18:00+21sse126514 0.2 101024
21:00+14ssw33720 0.3 101534
12 august, fri
fri1200:00+13sw32750 0.0 101528
03:00+12sw32800 0.0 101626
06:00+14sw22820 0.0 101641
09:00+20ene22570 0.0 1014741
12:00+23ne325514 0.1 10131293
15:00+22ne216032 1.4 10131114
18:00+19ene227912 1.3 101594
21:00+14ssw228768 4.3 101720
13 august, sat
sat1300:00+13sw22810 0.4 101718
03:00+12sw22750 0.7 101717
06:00+13ssw22730 0.0 101727
09:00+20e22510 0.0 1014650
12:00+22ene32530 0.0 10131022
15:00+22ene325631 0.4 10131236
18:00+18e23752 0.3 1014108
21:00+14sw22680 1.3 101617
14 august, sun
sun1400:00+13sw32540 0.0 101619
03:00+12sw32550 0.0 101621
06:00+13sw32620 0.0 101627
09:00+21se12420 0.0 1013579
12:00+23ene32430 0.0 10111089
15:00+23ene32482 0.0 10121124
18:00+20ese22640 0.0 101215
21:00+15ssw33540 0.0 101630